Time,TemperatureF,DewpointF,PressureIn,WindDirection,WindDirectionDegrees,WindSpeedMPH,WindSpeedGustMPH,Humidity,HourlyPrecipIn,Conditions,Clouds,dailyrainin,SoftwareType,DateUTC
2013-01-11 00:04:00,40.4,27.6,30.51,ESE,107,1.0,2.0,60,0.00,,,0.00,Wunderground PWS Mod,2013-01-11 05:04:00,
2013-01-11 00:14:00,40.8,28.0,30.51,ESE,107,0.0,2.0,60,0.00,,,0.00,Wunderground PWS Mod,2013-01-11 05:14:00,
2013-01-11 00:18:00,40.6,28.2,30.52,ESE,107,0.0,2.0,61,0.00,,,0.00,Wunderground PWS Mod,2013-01-11 05:18:00,
2013-01-11 00:20:00,40.6,28.2,30.51,ESE,113,0.0,2.0,61,0.00,,,0.00,Wunderground PWS Mod,2013-01-11 05:20:00,
2013-01-11 00:22:00,40.6,28.2,30.51,ESE,113,0.0,2.0,61,0.00,,,0.00,Wunderground PWS Mod,2013-01-11 05:22:00,
2013-01-11 00:24:00,40.5,27.7,30.51,ESE,107,0.0,2.0,60,0.00,,,0.00,Wunderground PWS Mod,2013-01-11 05:24:00,
2013-01-11 00:34:00,40.3,27.9,30.51,ESE,107,0.0,2.0,61,0.00,,,0.00,Wunderground PWS Mod,2013-01-11 05:34:00,
2013-01-11 00:44:00,40.9,28.1,30.51,ESE,107,0.0,2.0,60,0.00,,,0.00,Wunderground PWS Mod,2013-01-11 05:44:00,
2013-01-11 00:50:00,40.6,28.2,30.50,ESE,113,0.0,1.0,61,0.00,,,0.00,Wunderground PWS Mod,2013-01-11 05:50:00,
2013-01-11 00:52:00,40.6,28.2,30.50,ESE,113,0.0,1.0,61,0.00,,,0.00,Wunderground PWS Mod,2013-01-11 05:52:00,
2013-01-11 00:54:00,40.8,28.4,30.51,ESE,107,0.0,2.0,61,0.00,,,0.00,Wunderground PWS Mod,2013-01-11 05:54:00,
2013-01-11 01:04:00,40.0,27.6,30.51,ESE,107,0.0,2.0,61,0.00,,,0.00,Wunderground PWS Mod,2013-01-11 06:04:00,
2013-01-11 01:10:00,40.6,28.2,30.50,ESE,113,0.0,1.0,61,0.00,,,0.00,Wunderground PWS Mod,2013-01-11 06:10:00,
2013-01-11 01:12:00,40.6,28.2,30.50,ESE,113,0.0,1.0,61,0.00,,,0.00,Wunderground PWS Mod,2013-01-11 06:12:00,
2013-01-11 01:14:00,39.8,27.8,30.51,ESE,107,0.0,2.0,62,0.00,,,0.00,Wunderground PWS Mod,2013-01-11 06:14:00,
2013-01-11 01:24:00,39.7,27.7,30.51,ESE,107,0.0,2.0,62,0.00,,,0.00,Wunderground PWS Mod,2013-01-11 06:24:00,
2013-01-11 01:34:00,39.3,27.7,30.51,ESE,107,0.0,2.0,63,0.00,,,0.00,Wunderground PWS Mod,2013-01-11 06:34:00,
2013-01-11 01:44:00,39.7,28.1,30.51,ESE,107,0.0,2.0,63,0.00,,,0.00,Wunderground PWS Mod,2013-01-11 06:44:00,
2013-01-11 01:50:00,39.3,28.1,30.50,ESE,113,0.0,2.0,64,0.00,,,0.00,Wunderground PWS Mod,2013-01-11 06:50:00,
2013-01-11 01:52:00,39.3,28.1,30.50,ESE,113,0.0,2.0,64,0.00,,,0.00,Wunderground PWS Mod,2013-01-11 06:52:00,
2013-01-11 01:54:00,39.2,27.7,30.51,ESE,107,0.0,2.0,63,0.00,,,0.00,Wunderground PWS Mod,2013-01-11 06:54:00,
2013-01-11 02:04:00,39.0,27.8,30.51,ESE,107,0.0,1.0,64,0.00,,,0.00,Wunderground PWS Mod,2013-01-11 07:04:00,
2013-01-11 02:14:00,38.3,27.6,30.50,ESE,107,0.0,2.0,65,0.00,,,0.00,Wunderground PWS Mod,2013-01-11 07:14:00,
2013-01-11 02:16:00,39.3,28.1,30.50,ESE,113,0.0,2.0,64,0.00,,,0.00,Wunderground PWS Mod,2013-01-11 07:16:00,
2013-01-11 02:24:00,38.6,27.1,30.49,ESE,107,1.0,2.0,63,0.00,,,0.00,Wunderground PWS Mod,2013-01-11 07:24:00,
2013-01-11 02:34:00,38.7,27.6,30.50,ESE,107,0.0,2.0,64,0.00,,,0.00,Wunderground PWS Mod,2013-01-11 07:34:00,
2013-01-11 02:44:00,37.4,27.4,30.50,ESE,107,0.0,2.0,67,0.00,,,0.00,Wunderground PWS Mod,2013-01-11 07:44:00,
2013-01-11 02:48:00,37.8,28.2,30.47,ESE,113,0.0,2.0,68,0.00,,,0.00,Wunderground PWS Mod,2013-01-11 07:48:00,
2013-01-11 02:54:00,37.6,27.3,30.49,ESE,107,0.0,2.0,66,0.00,,,0.00,Wunderground PWS Mod,2013-01-11 07:54:00,
2013-01-11 03:04:00,37.0,27.4,30.48,ESE,107,0.0,2.0,68,0.00,,,0.00,Wunderground PWS Mod,2013-01-11 08:04:00,
2013-01-11 03:14:00,36.8,27.2,30.48,ESE,107,0.0,2.0,68,0.00,,,0.00,Wunderground PWS Mod,2013-01-11 08:14:00,
2013-01-11 03:18:00,36.3,27.4,30.48,ESE,113,1.0,2.0,70,0.00,,,0.00,Wunderground PWS Mod,2013-01-11 08:18:00,
2013-01-11 03:24:00,35.9,27.1,30.48,ESE,107,1.0,2.0,70,0.00,,,0.00,Wunderground PWS Mod,2013-01-11 08:24:00,
2013-01-11 03:34:00,35.3,26.8,30.48,ESE,107,0.0,2.0,71,0.00,,,0.00,Wunderground PWS Mod,2013-01-11 08:34:00,
2013-01-11 03:44:00,35.3,26.8,30.47,ESE,107,0.0,2.0,71,0.00,,,0.00,Wunderground PWS Mod,2013-01-11 08:44:00,
2013-01-11 03:46:00,36.3,27.4,30.48,ESE,113,1.0,2.0,70,0.00,,,0.00,Wunderground PWS Mod,2013-01-11 08:46:00,
2013-01-11 03:54:00,35.1,26.6,30.47,ESE,107,0.0,2.0,71,0.00,,,0.00,Wunderground PWS Mod,2013-01-11 08:54:00,
2013-01-11 04:04:00,35.0,26.5,30.47,ESE,107,0.0,2.0,71,0.00,,,0.00,Wunderground PWS Mod,2013-01-11 09:04:00,
2013-01-11 04:14:00,34.8,26.4,30.47,ESE,107,0.0,2.0,71,0.00,,,0.00,Wunderground PWS Mod,2013-01-11 09:14:00,
2013-01-11 04:18:00,35.0,26.5,30.45,ESE,113,0.0,2.0,71,0.00,,,0.00,Wunderground PWS Mod,2013-01-11 09:18:00,
2013-01-11 04:24:00,35.2,27.1,30.47,ESE,107,0.0,2.0,72,0.00,,,0.00,Wunderground PWS Mod,2013-01-11 09:24:00,
2013-01-11 04:34:00,35.4,26.6,30.46,ESE,107,1.0,2.0,70,0.00,,,0.00,Wunderground PWS Mod,2013-01-11 09:34:00,
2013-01-11 04:44:00,35.2,26.7,30.46,ESE,107,0.0,2.0,71,0.00,,,0.00,Wunderground PWS Mod,2013-01-11 09:44:00,
2013-01-11 04:48:00,35.3,26.8,30.45,ESE,113,0.0,2.0,71,0.00,,,0.00,Wunderground PWS Mod,2013-01-11 09:48:00,
2013-01-11 04:54:00,35.4,27.3,30.46,ESE,107,1.0,2.0,72,0.00,,,0.00,Wunderground PWS Mod,2013-01-11 09:54:00,
2013-01-11 05:04:00,35.6,27.1,30.45,ESE,107,0.0,2.0,71,0.00,,,0.00,Wunderground PWS Mod,2013-01-11 10:04:00,
2013-01-11 05:14:00,35.1,27.0,30.46,ESE,107,0.0,2.0,72,0.00,,,0.00,Wunderground PWS Mod,2013-01-11 10:14:00,
2013-01-11 05:16:00,35.3,26.8,30.45,ESE,113,0.0,2.0,71,0.00,,,0.00,Wunderground PWS Mod,2013-01-11 10:16:00,
2013-01-11 05:24:00,35.2,27.1,30.46,ESE,107,1.0,2.0,72,0.00,,,0.00,Wunderground PWS Mod,2013-01-11 10:24:00,
2013-01-11 05:34:00,35.3,27.5,30.45,ESE,107,0.0,2.0,73,0.00,,,0.00,Wunderground PWS Mod,2013-01-11 10:34:00,
2013-01-11 05:44:00,36.0,27.5,30.46,ESE,107,0.0,2.0,71,0.00,,,0.00,Wunderground PWS Mod,2013-01-11 10:44:00,
2013-01-11 05:46:00,35.2,27.4,30.45,ESE,113,0.0,2.0,73,0.00,,,0.00,Wunderground PWS Mod,2013-01-11 10:46:00,
2013-01-11 05:54:00,35.5,27.7,30.45,ESE,107,0.0,2.0,73,0.00,,,0.00,Wunderground PWS Mod,2013-01-11 10:54:00,
2013-01-11 06:04:00,35.5,28.0,30.44,ESE,107,1.0,2.0,74,0.00,,,0.00,Wunderground PWS Mod,2013-01-11 11:04:00,
2013-01-11 06:14:00,36.4,28.6,30.44,ESE,107,1.0,3.0,73,0.00,,,0.00,Wunderground PWS Mod,2013-01-11 11:14:00,
2013-01-11 06:18:00,36.3,28.1,30.43,ESE,113,0.0,2.0,72,0.00,,,0.00,Wunderground PWS Mod,2013-01-11 11:18:00,
2013-01-11 06:24:00,36.4,27.9,30.44,ESE,107,1.0,3.0,71,0.00,,,0.00,Wunderground PWS Mod,2013-01-11 11:24:00,
2013-01-11 06:34:00,36.2,28.0,30.44,ESE,107,0.0,3.0,72,0.00,,,0.00,Wunderground PWS Mod,2013-01-11 11:34:00,
2013-01-11 06:44:00,36.1,27.9,30.44,ESE,107,0.0,3.0,72,0.00,,,0.00,Wunderground PWS Mod,2013-01-11 11:44:00,
2013-01-11 06:46:00,36.3,28.1,30.43,ESE,113,0.0,2.0,72,0.00,,,0.00,Wunderground PWS Mod,2013-01-11 11:46:00,
2013-01-11 06:54:00,36.1,28.3,30.42,ESE,107,1.0,3.0,73,0.00,,,0.00,Wunderground PWS Mod,2013-01-11 11:54:00,
2013-01-11 07:04:00,35.9,28.1,30.43,ESE,107,0.0,2.0,73,0.00,,,0.00,Wunderground PWS Mod,2013-01-11 12:04:00,
2013-01-11 07:14:00,35.5,27.7,30.43,ESE,107,2.0,2.0,73,0.00,,,0.00,Wunderground PWS Mod,2013-01-11 12:14:00,
2013-01-11 07:16:00,36.1,28.3,30.42,ESE,113,0.0,2.0,73,0.00,,,0.00,Wunderground PWS Mod,2013-01-11 12:16:00,
2013-01-11 07:24:00,35.1,27.3,30.43,ESE,107,0.0,2.0,73,0.00,,,0.00,Wunderground PWS Mod,2013-01-11 12:24:00,
2013-01-11 07:34:00,34.9,27.8,30.43,ESE,107,0.0,2.0,75,0.00,,,0.00,Wunderground PWS Mod,2013-01-11 12:34:00,
2013-01-11 07:44:00,35.3,28.2,30.42,ESE,107,0.0,3.0,75,0.00,,,0.00,Wunderground PWS Mod,2013-01-11 12:44:00,
2013-01-11 07:48:00,35.3,27.8,30.43,ESE,113,0.0,2.0,74,0.00,,,0.00,Wunderground PWS Mod,2013-01-11 12:48:00,
2013-01-11 07:54:00,35.3,28.2,30.43,ESE,107,0.0,3.0,75,0.00,,,0.00,Wunderground PWS Mod,2013-01-11 12:54:00,
2013-01-11 08:04:00,36.2,28.7,30.44,ESE,107,1.0,3.0,74,0.00,,,0.00,Wunderground PWS Mod,2013-01-11 13:04:00,
2013-01-11 08:14:00,36.5,29.3,30.44,ESE,107,0.0,3.0,75,0.00,,,0.00,Wunderground PWS Mod,2013-01-11 13:14:00,
2013-01-11 08:18:00,36.6,30.4,30.41,ESE,113,1.0,2.0,78,0.00,,,0.00,Wunderground PWS Mod,2013-01-11 13:18:00,
2013-01-11 08:24:00,36.9,30.0,30.43,ESE,107,1.0,3.0,76,0.00,,,0.00,Wunderground PWS Mod,2013-01-11 13:24:00,
2013-01-11 08:34:00,36.9,30.7,30.42,ESE,107,0.0,3.0,78,0.00,,,0.00,Wunderground PWS Mod,2013-01-11 13:34:00,
2013-01-11 08:44:00,37.3,31.4,30.43,ESE,107,2.0,3.0,79,0.00,,,0.00,Wunderground PWS Mod,2013-01-11 13:44:00,
2013-01-11 08:50:00,37.3,31.4,30.41,ESE,113,1.0,4.0,79,0.00,,,0.00,Wunderground PWS Mod,2013-01-11 13:50:00,
2013-01-11 08:52:00,37.3,31.4,30.41,ESE,113,1.0,4.0,79,0.00,,,0.00,Wunderground PWS Mod,2013-01-11 13:52:00,
2013-01-11 08:54:00,37.5,31.6,30.43,ESE,107,1.0,3.0,79,0.00,,,0.00,Wunderground PWS Mod,2013-01-11 13:54:00,
2013-01-11 09:04:00,37.9,32.0,30.42,ESE,107,1.0,2.0,79,0.00,,,0.00,Wunderground PWS Mod,2013-01-11 14:04:00,
2013-01-11 09:14:00,38.9,32.3,30.41,ESE,107,1.0,4.0,77,0.00,,,0.00,Wunderground PWS Mod,2013-01-11 14:14:00,
2013-01-11 09:20:00,39.0,31.7,30.41,ESE,113,1.0,3.0,75,0.00,,,0.00,Wunderground PWS Mod,2013-01-11 14:20:00,
2013-01-11 09:22:00,39.0,31.7,30.41,ESE,113,1.0,3.0,75,0.00,,,0.00,Wunderground PWS Mod,2013-01-11 14:22:00,
2013-01-11 09:24:00,39.2,32.3,30.40,ESE,107,3.0,4.0,76,0.00,,,0.00,Wunderground PWS Mod,2013-01-11 14:24:00,
2013-01-11 09:34:00,39.5,32.2,30.41,ESE,107,1.0,4.0,75,0.00,,,0.00,Wunderground PWS Mod,2013-01-11 14:34:00,
2013-01-11 09:44:00,40.0,31.7,30.41,ESE,107,2.0,4.0,72,0.00,,,0.00,Wunderground PWS Mod,2013-01-11 14:44:00,
2013-01-11 09:50:00,40.0,31.7,30.38,ESE,113,2.0,4.0,72,0.00,,,0.00,Wunderground PWS Mod,2013-01-11 14:50:00,
2013-01-11 09:52:00,40.0,31.7,30.38,ESE,113,2.0,4.0,72,0.00,,,0.00,Wunderground PWS Mod,2013-01-11 14:52:00,
2013-01-11 09:54:00,40.1,31.8,30.40,ESE,107,1.0,4.0,72,0.00,,,0.00,Wunderground PWS Mod,2013-01-11 14:54:00,
2013-01-11 10:04:00,40.2,31.9,30.39,ESE,108,3.0,3.0,72,0.00,,,0.00,Wunderground PWS Mod,2013-01-11 15:04:00,
2013-01-11 10:10:00,40.0,31.7,30.38,ESE,113,2.0,4.0,72,0.00,,,0.00,Wunderground PWS Mod,2013-01-11 15:10:00,
2013-01-11 10:12:00,40.0,31.7,30.38,ESE,113,2.0,4.0,72,0.00,,,0.00,Wunderground PWS Mod,2013-01-11 15:12:00,
2013-01-11 10:14:00,40.6,31.9,30.39,SE,144,3.0,4.0,71,0.00,,,0.00,Wunderground PWS Mod,2013-01-11 15:14:00,
2013-01-11 10:24:00,41.4,32.0,30.40,SSE,154,2.0,4.0,69,0.00,,,0.00,Wunderground PWS Mod,2013-01-11 15:24:00,
2013-01-11 10:34:00,41.4,31.6,30.38,ESE,120,2.0,4.0,68,0.00,,,0.00,Wunderground PWS Mod,2013-01-11 15:34:00,
2013-01-11 10:44:00,41.3,31.5,30.38,SE,129,3.0,6.0,68,0.00,,,0.00,Wunderground PWS Mod,2013-01-11 15:44:00,
2013-01-11 10:50:00,41.4,31.6,30.36,SE,135,4.0,9.0,68,0.00,,,0.00,Wunderground PWS Mod,2013-01-11 15:50:00,
2013-01-11 10:52:00,41.4,31.6,30.36,SE,135,4.0,9.0,68,0.00,,,0.00,Wunderground PWS Mod,2013-01-11 15:52:00,
2013-01-11 10:54:00,41.5,31.4,30.37,SE,131,6.0,6.0,67,0.00,,,0.00,Wunderground PWS Mod,2013-01-11 15:54:00,
2013-01-11 11:04:00,41.6,31.8,30.36,SSE,147,3.0,6.0,68,0.00,,,0.00,Wunderground PWS Mod,2013-01-11 16:04:00,
2013-01-11 11:10:00,41.4,31.6,30.36,SE,135,4.0,9.0,68,0.00,,,0.00,Wunderground PWS Mod,2013-01-11 16:10:00,
2013-01-11 11:12:00,41.4,31.6,30.36,SE,135,4.0,9.0,68,0.00,,,0.00,Wunderground PWS Mod,2013-01-11 16:12:00,
2013-01-11 11:14:00,41.7,31.9,30.35,ESE,121,2.0,9.0,68,0.00,,,0.00,Wunderground PWS Mod,2013-01-11 16:14:00,
2013-01-11 11:24:00,42.0,31.8,30.35,SE,137,4.0,9.0,67,0.00,,,0.00,Wunderground PWS Mod,2013-01-11 16:24:00,
2013-01-11 11:34:00,42.2,32.0,30.35,SE,133,3.0,9.0,67,0.00,,,0.00,Wunderground PWS Mod,2013-01-11 16:34:00,
2013-01-11 11:44:00,42.1,31.9,30.32,SE,139,3.0,9.0,67,0.00,,,0.00,Wunderground PWS Mod,2013-01-11 16:44:00,
2013-01-11 11:48:00,42.4,32.2,30.31,SE,135,3.0,6.0,67,0.00,,,0.00,Wunderground PWS Mod,2013-01-11 16:48:00,
2013-01-11 11:54:00,42.6,32.4,30.32,SE,139,3.0,9.0,67,0.00,,,0.00,Wunderground PWS Mod,2013-01-11 16:54:00,
2013-01-11 12:04:00,42.6,32.4,30.31,SSE,147,3.0,6.0,67,0.00,,,0.00,Wunderground PWS Mod,2013-01-11 17:04:00,
2013-01-11 12:14:00,42.9,32.7,30.31,SSE,163,4.0,6.0,67,0.00,,,0.00,Wunderground PWS Mod,2013-01-11 17:14:00,
2013-01-11 12:18:00,43.0,32.8,30.28,SSE,158,3.0,7.0,67,0.00,,,0.00,Wunderground PWS Mod,2013-01-11 17:18:00,
2013-01-11 12:24:00,43.2,33.0,30.30,SSE,163,5.0,6.0,67,0.00,,,0.00,Wunderground PWS Mod,2013-01-11 17:24:00,
2013-01-11 12:34:00,43.8,33.2,30.29,ESE,112,3.0,6.0,66,0.00,,,0.00,Wunderground PWS Mod,2013-01-11 17:34:00,
2013-01-11 12:44:00,44.0,33.4,30.27,SE,140,7.0,7.0,66,0.00,,,0.00,Wunderground PWS Mod,2013-01-11 17:44:00,
2013-01-11 12:46:00,43.0,32.8,30.28,SSE,158,3.0,7.0,67,0.00,,,0.00,Wunderground PWS Mod,2013-01-11 17:46:00,
2013-01-11 12:54:00,44.1,34.2,30.28,SE,140,5.0,7.0,68,0.00,,,0.00,Wunderground PWS Mod,2013-01-11 17:54:00,
2013-01-11 13:04:00,44.1,34.6,30.27,SSE,161,6.0,7.0,69,0.00,,,0.00,Wunderground PWS Mod,2013-01-11 18:04:00,
2013-01-11 13:14:00,44.0,34.1,30.27,SSE,154,5.0,8.0,68,0.00,,,0.00,Wunderground PWS Mod,2013-01-11 18:14:00,
2013-01-11 13:16:00,44.0,34.1,30.26,SE,135,4.0,8.0,68,0.00,,,0.00,Wunderground PWS Mod,2013-01-11 18:16:00,
2013-01-11 13:24:00,43.8,33.9,30.26,SE,124,1.0,8.0,68,0.00,,,0.00,Wunderground PWS Mod,2013-01-11 18:24:00,
2013-01-11 13:34:00,43.8,34.3,30.26,South,182,2.0,8.0,69,0.00,,,0.00,Wunderground PWS Mod,2013-01-11 18:34:00,
2013-01-11 13:44:00,43.9,34.4,30.24,SSE,147,3.0,8.0,69,0.00,,,0.00,Wunderground PWS Mod,2013-01-11 18:44:00,
2013-01-11 13:48:00,43.9,35.1,30.24,SE,135,4.0,8.0,71,0.00,,,0.00,Wunderground PWS Mod,2013-01-11 18:48:00,
2013-01-11 13:54:00,43.9,34.4,30.24,SE,135,5.0,8.0,69,0.00,,,0.00,Wunderground PWS Mod,2013-01-11 18:54:00,
2013-01-11 14:04:00,43.5,34.7,30.24,SSE,156,3.0,8.0,71,0.00,,,0.00,Wunderground PWS Mod,2013-01-11 19:04:00,
2013-01-11 14:14:00,44.3,35.8,30.24,SSE,156,1.0,8.0,72,0.00,,,0.00,Wunderground PWS Mod,2013-01-11 19:14:00,
2013-01-11 14:18:00,44.0,35.6,30.22,SSE,158,3.0,7.0,72,0.00,,,0.00,Wunderground PWS Mod,2013-01-11 19:18:00,
2013-01-11 14:24:00,44.0,35.2,30.23,SSE,147,4.0,8.0,71,0.00,,,0.00,Wunderground PWS Mod,2013-01-11 19:24:00,
2013-01-11 14:34:00,43.6,35.2,30.22,SE,137,6.0,8.0,72,0.00,,,0.00,Wunderground PWS Mod,2013-01-11 19:34:00,
2013-01-11 14:44:00,43.6,35.9,30.23,SE,145,0.0,8.0,74,0.00,,,0.00,Wunderground PWS Mod,2013-01-11 19:44:00,
2013-01-11 14:50:00,43.7,36.0,30.22,SE,135,4.0,8.0,74,0.00,,,0.00,Wunderground PWS Mod,2013-01-11 19:50:00,
2013-01-11 14:52:00,43.7,36.0,30.22,SE,135,4.0,8.0,74,0.00,,,0.00,Wunderground PWS Mod,2013-01-11 19:52:00,
2013-01-11 14:54:00,43.9,35.8,30.23,SE,134,3.0,8.0,73,0.00,,,0.00,Wunderground PWS Mod,2013-01-11 19:54:00,
2013-01-11 15:04:00,43.8,36.0,30.22,SSE,152,4.0,7.0,74,0.00,,,0.00,Wunderground PWS Mod,2013-01-11 20:04:00,
2013-01-11 15:14:00,43.6,36.2,30.22,ESE,118,4.0,8.0,75,0.00,,,0.00,Wunderground PWS Mod,2013-01-11 20:14:00,
2013-01-11 15:18:00,43.6,37.2,30.20,SE,135,3.0,6.0,78,0.00,,,0.00,Wunderground PWS Mod,2013-01-11 20:18:00,
2013-01-11 15:24:00,43.6,36.5,30.21,SSE,147,3.0,8.0,76,0.00,,,0.00,Wunderground PWS Mod,2013-01-11 20:24:00,
2013-01-11 15:34:00,43.3,36.9,30.21,SSE,148,2.0,8.0,78,0.00,,,0.00,Wunderground PWS Mod,2013-01-11 20:34:00,
2013-01-11 15:44:00,43.0,37.6,30.20,SSE,148,3.0,8.0,81,0.00,,,0.00,Wunderground PWS Mod,2013-01-11 20:44:00,
2013-01-11 15:50:00,42.9,38.1,30.19,SSE,158,1.0,4.0,83,0.00,,,0.00,Wunderground PWS Mod,2013-01-11 20:50:00,
2013-01-11 15:52:00,42.9,38.1,30.19,SSE,158,1.0,4.0,83,0.00,,,0.00,Wunderground PWS Mod,2013-01-11 20:52:00,
2013-01-11 15:54:00,42.6,37.5,30.20,SSE,148,0.0,8.0,82,0.00,,,0.00,Wunderground PWS Mod,2013-01-11 20:54:00,
2013-01-11 16:04:00,42.7,37.9,30.19,SSE,148,0.0,6.0,83,0.00,,,0.00,Wunderground PWS Mod,2013-01-11 21:04:00,
2013-01-11 16:10:00,42.9,38.1,30.19,SSE,158,1.0,4.0,83,0.00,,,0.00,Wunderground PWS Mod,2013-01-11 21:10:00,
2013-01-11 16:12:00,42.9,38.1,30.19,SSE,158,1.0,4.0,83,0.00,,,0.00,Wunderground PWS Mod,2013-01-11 21:12:00,
2013-01-11 16:14:00,43.2,38.4,30.20,SSE,148,0.0,6.0,83,0.00,,,0.00,Wunderground PWS Mod,2013-01-11 21:14:00,
2013-01-11 16:24:00,43.6,39.1,30.19,SSE,147,0.0,6.0,84,0.00,,,0.00,Wunderground PWS Mod,2013-01-11 21:24:00,
2013-01-11 16:34:00,43.0,38.5,30.19,SSE,147,0.0,6.0,84,0.00,,,0.00,Wunderground PWS Mod,2013-01-11 21:34:00,
2013-01-11 16:44:00,43.0,38.8,30.18,SSE,147,0.0,6.0,85,0.00,,,0.00,Wunderground PWS Mod,2013-01-11 21:44:00,
2013-01-11 16:46:00,43.1,38.6,30.18,SSE,158,0.0,2.0,84,0.00,,,0.00,Wunderground PWS Mod,2013-01-11 21:46:00,
2013-01-11 16:54:00,42.7,38.5,30.18,SSE,147,0.0,6.0,85,0.00,,,0.00,Wunderground PWS Mod,2013-01-11 21:54:00,
2013-01-11 17:04:00,43.1,38.9,30.17,SSE,147,0.0,2.0,85,0.00,,,0.00,Wunderground PWS Mod,2013-01-11 22:04:00,
2013-01-11 17:14:00,43.1,38.9,30.17,SE,146,1.0,2.0,85,0.00,,,0.00,Wunderground PWS Mod,2013-01-11 22:14:00,
2013-01-11 17:16:00,42.9,38.7,30.16,SSE,158,0.0,2.0,85,0.00,,,0.01,Wunderground PWS Mod,2013-01-11 22:16:00,
2013-01-11 17:24:00,43.0,39.1,30.16,SE,146,1.0,2.0,86,0.00,,,0.00,Wunderground PWS Mod,2013-01-11 22:24:00,
2013-01-11 17:34:00,42.8,39.2,30.16,SE,146,0.0,2.0,87,0.00,,,0.00,Wunderground PWS Mod,2013-01-11 22:34:00,
2013-01-11 17:44:00,43.2,39.6,30.15,SE,146,1.0,2.0,87,0.00,,,0.00,Wunderground PWS Mod,2013-01-11 22:44:00,
2013-01-11 17:50:00,42.9,39.3,30.14,SE,135,1.0,2.0,87,0.06,,,0.06,Wunderground PWS Mod,2013-01-11 22:50:00,
2013-01-11 17:52:00,42.9,39.3,30.14,SE,135,1.0,2.0,87,0.06,,,0.06,Wunderground PWS Mod,2013-01-11 22:52:00,
2013-01-11 17:54:00,42.9,39.3,30.16,SE,146,1.0,2.0,87,0.00,,,0.00,Wunderground PWS Mod,2013-01-11 22:54:00,
2013-01-11 18:04:00,42.8,39.5,30.15,SE,145,1.0,2.0,88,0.00,,,0.00,Wunderground PWS Mod,2013-01-11 23:04:00,
2013-01-11 18:10:00,42.9,39.3,30.14,SE,135,1.0,2.0,87,0.06,,,0.06,Wunderground PWS Mod,2013-01-11 23:10:00,
2013-01-11 18:12:00,42.9,39.3,30.14,SE,135,1.0,2.0,87,0.06,,,0.06,Wunderground PWS Mod,2013-01-11 23:12:00,
2013-01-11 18:14:00,42.6,39.0,30.16,SE,140,1.0,2.0,87,0.00,,,0.00,Wunderground PWS Mod,2013-01-11 23:14:00,
2013-01-11 18:24:00,42.6,39.3,30.15,ESE,121,2.0,2.0,88,0.00,,,0.00,Wunderground PWS Mod,2013-01-11 23:24:00,
2013-01-11 18:34:00,42.5,39.2,30.15,ESE,114,2.0,3.0,88,0.00,,,0.00,Wunderground PWS Mod,2013-01-11 23:34:00,
2013-01-11 18:44:00,42.6,39.6,30.15,ESE,108,1.0,3.0,89,0.00,,,0.00,Wunderground PWS Mod,2013-01-11 23:44:00,
2013-01-11 18:50:00,42.7,39.7,30.14,ESE,113,1.0,4.0,89,0.00,,,0.06,Wunderground PWS Mod,2013-01-11 23:50:00,
2013-01-11 18:52:00,42.7,39.7,30.14,ESE,113,1.0,4.0,89,0.00,,,0.06,Wunderground PWS Mod,2013-01-11 23:52:00,
2013-01-11 18:54:00,42.7,39.7,30.15,East,91,1.0,3.0,89,0.00,,,0.00,Wunderground PWS Mod,2013-01-11 23:54:00,
2013-01-11 19:04:00,43.2,40.2,30.15,East,91,1.0,3.0,89,0.00,,,0.00,Wunderground PWS Mod,2013-01-12 00:04:00,
2013-01-11 19:14:00,42.8,39.8,30.14,East,83,3.0,4.0,89,0.00,,,0.00,Wunderground PWS Mod,2013-01-12 00:14:00,
2013-01-11 19:20:00,42.8,39.8,30.13,North,0,2.0,3.0,89,0.01,,,0.07,Wunderground PWS Mod,2013-01-12 00:20:00,
2013-01-11 19:22:00,42.8,39.8,30.13,North,0,2.0,3.0,89,0.01,,,0.07,Wunderground PWS Mod,2013-01-12 00:22:00,
2013-01-11 19:24:00,42.7,39.7,30.14,North,4,2.0,4.0,89,0.00,,,0.00,Wunderground PWS Mod,2013-01-12 00:24:00,
2013-01-11 19:34:00,43.0,40.0,30.14,North,4,0.0,4.0,89,0.00,,,0.00,Wunderground PWS Mod,2013-01-12 00:34:00,
2013-01-11 19:44:00,42.9,39.9,30.14,North,4,0.0,4.0,89,0.00,,,0.00,Wunderground PWS Mod,2013-01-12 00:44:00,
2013-01-11 19:48:00,43.1,40.4,30.12,North,0,1.0,3.0,90,0.01,,,0.07,Wunderground PWS Mod,2013-01-12 00:48:00,
2013-01-11 19:54:00,43.1,40.1,30.12,North,4,1.0,4.0,89,0.00,,,0.00,Wunderground PWS Mod,2013-01-12 00:54:00,
2013-01-11 20:04:00,43.5,40.5,30.13,North,4,1.0,3.0,89,0.00,,,0.00,Wunderground PWS Mod,2013-01-12 01:04:00,
2013-01-11 20:14:00,43.2,40.2,30.13,North,4,1.0,3.0,89,0.00,,,0.00,Wunderground PWS Mod,2013-01-12 01:14:00,
2013-01-11 20:16:00,43.1,40.4,30.12,North,0,1.0,3.0,90,0.01,,,0.07,Wunderground PWS Mod,2013-01-12 01:16:00,
2013-01-11 20:24:00,43.1,40.1,30.14,North,4,1.0,3.0,89,0.00,,,0.00,Wunderground PWS Mod,2013-01-12 01:24:00,
2013-01-11 20:34:00,43.1,40.1,30.13,North,4,1.0,3.0,89,0.00,,,0.00,Wunderground PWS Mod,2013-01-12 01:34:00,
2013-01-11 20:44:00,43.3,40.6,30.13,North,4,0.0,3.0,90,0.00,,,0.00,Wunderground PWS Mod,2013-01-12 01:44:00,
2013-01-11 20:50:00,43.2,40.5,30.12,North,0,1.0,2.0,90,0.00,,,0.07,Wunderground PWS Mod,2013-01-12 01:50:00,
2013-01-11 20:52:00,43.2,40.5,30.12,North,0,1.0,2.0,90,0.00,,,0.07,Wunderground PWS Mod,2013-01-12 01:52:00,
2013-01-11 20:54:00,43.2,40.2,30.13,North,4,1.0,3.0,89,0.00,,,0.00,Wunderground PWS Mod,2013-01-12 01:54:00,
2013-01-11 21:04:00,43.6,40.9,30.12,North,4,2.0,3.0,90,0.00,,,0.00,Wunderground PWS Mod,2013-01-12 02:04:00,
2013-01-11 21:14:00,43.1,40.1,30.11,SSE,155,4.0,4.0,89,0.00,,,0.00,Wunderground PWS Mod,2013-01-12 02:14:00,
2013-01-11 21:18:00,43.3,40.6,30.11,SSE,158,2.0,4.0,90,0.00,,,0.07,Wunderground PWS Mod,2013-01-12 02:18:00,
2013-01-11 21:24:00,43.5,40.8,30.12,SSE,155,1.0,4.0,90,0.00,,,0.00,Wunderground PWS Mod,2013-01-12 02:24:00,
2013-01-11 21:34:00,43.5,40.8,30.12,SSE,155,0.0,4.0,90,0.00,,,0.00,Wunderground PWS Mod,2013-01-12 02:34:00,
2013-01-11 21:44:00,43.8,41.1,30.13,SSE,155,1.0,4.0,90,0.00,,,0.00,Wunderground PWS Mod,2013-01-12 02:44:00,
2013-01-11 21:48:00,43.7,40.7,30.10,SSE,158,0.0,2.0,89,0.00,,,0.07,Wunderground PWS Mod,2013-01-12 02:48:00,
2013-01-11 21:54:00,43.8,41.1,30.12,SSE,155,0.0,4.0,90,0.00,,,0.00,Wunderground PWS Mod,2013-01-12 02:54:00,
2013-01-11 22:04:00,43.6,40.9,30.11,SSE,155,1.0,4.0,90,0.00,,,0.00,Wunderground PWS Mod,2013-01-12 03:04:00,
2013-01-11 22:14:00,43.5,40.5,30.11,SSE,155,0.0,4.0,89,0.00,,,0.00,Wunderground PWS Mod,2013-01-12 03:14:00,
2013-01-11 22:16:00,43.7,40.7,30.10,SSE,158,0.0,2.0,89,0.00,,,0.07,Wunderground PWS Mod,2013-01-12 03:16:00,
2013-01-11 22:24:00,43.5,40.5,30.11,SSE,155,0.0,4.0,89,0.00,,,0.00,Wunderground PWS Mod,2013-01-12 03:24:00,
2013-01-11 22:34:00,43.3,40.3,30.11,SSE,155,0.0,4.0,89,0.00,,,0.00,Wunderground PWS Mod,2013-01-12 03:34:00,
2013-01-11 22:44:00,43.3,40.3,30.12,SSE,155,0.0,4.0,89,0.00,,,0.00,Wunderground PWS Mod,2013-01-12 03:44:00,
2013-01-11 22:50:00,43.2,40.2,30.10,SSE,158,1.0,2.0,89,0.00,,,0.07,Wunderground PWS Mod,2013-01-12 03:50:00,
2013-01-11 22:52:00,43.2,40.2,30.10,SSE,158,1.0,2.0,89,0.00,,,0.07,Wunderground PWS Mod,2013-01-12 03:52:00,
2013-01-11 22:54:00,43.1,40.1,30.12,SSE,155,0.0,4.0,89,0.00,,,0.00,Wunderground PWS Mod,2013-01-12 03:54:00,
2013-01-11 23:04:00,43.1,40.1,30.11,SSE,155,0.0,2.0,89,0.00,,,0.00,Wunderground PWS Mod,2013-01-12 04:04:00,
2013-01-11 23:14:00,43.0,40.0,30.11,SSE,155,0.0,2.0,89,0.00,,,0.00,Wunderground PWS Mod,2013-01-12 04:14:00,
2013-01-11 23:18:00,43.1,40.4,30.10,SSE,158,1.0,3.0,90,0.00,,,0.07,Wunderground PWS Mod,2013-01-12 04:18:00,
2013-01-11 23:24:00,43.1,40.1,30.10,SSE,155,1.0,2.0,89,0.00,,,0.00,Wunderground PWS Mod,2013-01-12 04:24:00,
2013-01-11 23:34:00,43.0,40.3,30.11,South,181,1.0,2.0,90,0.00,,,0.00,Wunderground PWS Mod,2013-01-12 04:34:00,
2013-01-11 23:44:00,42.9,40.2,30.10,South,181,1.0,3.0,90,0.00,,,0.00,Wunderground PWS Mod,2013-01-12 04:44:00,
2013-01-11 23:46:00,43.1,40.4,30.10,SSE,158,1.0,3.0,90,0.00,,,0.07,Wunderground PWS Mod,2013-01-12 04:46:00,
2013-01-11 23:54:00,43.0,40.3,30.10,West,281,3.0,3.0,90,0.00,,,0.00,Wunderground PWS Mod,2013-01-12 04:54:00,